Weather History for Kiana, AK

Change the Weather History Date:

Saturday, September 22, 2012

  Actual Average (PASK) Record (PASK)
Temperature  
Mean Temperature 40 °F -  
Max Temperature 48 °F 41 °F 57 °F (1999)
Min Temperature 34 °F 31 °F 24 °F (2003)
Degree Days  
Heating Degree Days 25    
Moisture  
Dew Point 41 °F    
Average Humidity 96    
Maximum Humidity 100    
Minimum Humidity 86    
Precipitation  
Precipitation 0.00 in - - ()
Sea Level Pressure  
Sea Level Pressure 29.49 in    
Wind  
Wind Speed 7 mph (North)    
Max Wind Speed 14 mph    
Max Gust Speed 17 mph    
Visibility 10 miles    
Events Rain    
Averages and records for this station are not official NWS values.
T = Trace of Precipitation, MM = Missing Value Source: NWS Daily Summary

Daily Weather History Graph

Daily Weather History Graph

Search for Another Location

Airport:

Trip Planner

Search our weather history database for the weather conditions in past years. The results will help you decide how hot, cold, wet, or windy it might be!

Date:

Astronomy

Sep. 22, 2012 Rise Set
Actual Time 8:25 AM AKDT 8:40 PM AKDT
Civil Twilight 7:32 AM AKDT 9:33 PM AKDT
Nautical Twilight 6:25 AM AKDT 10:39 PM AKDT
Astronomical Twilight 5:05 AM AKDT 11:58 PM AKDT
Moon 6:56 PM AKDT (9/22) 11:00 PM AKDT (9/22)
Length of Visible Light 14h 01m
Length of Day
12h 14m
Waxing Crescent, 50% of the Moon is Illuminated
Sep 22
Waxing Crescent
Sep 29
Full
Oct 7
Last Quarter
Oct 15
New
Oct 21
First Quarter

Hourly Weather History & Observations

Time (AKDT) Temp. Windchill Dew Point Humidity Pressure Visibility Wind Dir Wind Speed Gust Speed Precip Events Conditions
12:01 AM 36.0 °F 29.6 °F 34.0 °F 93% 29.93 in 10.0 mi NNW 8.1 mph - N/A   Overcast
1:01 AM 35.1 °F 27.9 °F 33.1 °F 92% 29.91 in 10.0 mi North 9.2 mph - N/A   Overcast
2:01 AM 34.0 °F 29.8 °F 33.1 °F 96% 29.90 in 10.0 mi NE 4.6 mph - N/A   Mostly Cloudy
3:01 AM 35.1 °F 30.1 °F 35.1 °F 100% 29.87 in 10.0 mi North 5.8 mph - N/A   Overcast
4:01 AM 35.1 °F 27.9 °F 34.0 °F 96% 29.83 in 10.0 mi North 9.2 mph - N/A   Overcast
5:01 AM 35.1 °F 28.6 °F 34.0 °F 96% 29.81 in 10.0 mi North 8.1 mph - N/A   Overcast
6:01 AM 37.9 °F 29.6 °F 34.0 °F 86% 29.77 in 10.0 mi North 13.8 mph - N/A   Overcast
7:01 AM 37.9 °F 29.6 °F 34.0 °F 86% 29.74 in 10.0 mi North 13.8 mph 17.3 mph N/A Rain Light Rain
8:01 AM 37.9 °F 31.5 °F 35.1 °F 89% 29.71 in 10.0 mi North 9.2 mph - N/A Rain Light Rain
9:01 AM 37.9 °F 32.1 °F 36.0 °F 93% 29.67 in 10.0 mi North 8.1 mph - N/A Rain Light Rain
10:01 AM 37.9 °F 31.5 °F 36.0 °F 93% 29.64 in 10.0 mi North 9.2 mph - N/A Rain Light Rain
11:01 AM 39.9 °F 34.5 °F 37.9 °F 93% 29.61 in 10.0 mi North 8.1 mph - N/A Rain Light Rain
12:01 PM 41.0 °F 34.3 °F 39.0 °F 93% 29.57 in 10.0 mi NNW 11.5 mph - N/A Rain Light Rain
1:01 PM 41.0 °F 35.8 °F 39.9 °F 96% 29.54 in 10.0 mi North 8.1 mph - N/A Rain Light Rain
1:12 PM 42.8 °F 37.5 °F 39.2 °F 87% 29.41 in 10.0 mi North 9.2 mph - N/A Rain Light Rain
2:01 PM 42.1 °F 37.1 °F 39.9 °F 92% 29.51 in 10.0 mi North 8.1 mph - N/A Rain Light Rain
3:01 PM 43.0 °F 40.3 °F 41.0 °F 93% 29.48 in 10.0 mi NNE 4.6 mph - N/A Rain Light Rain
3:20 PM 42.8 °F - 42.8 °F 100% 29.35 in 10.0 mi Calm Calm - N/A Rain Light Rain
4:01 PM 43.0 °F 41.3 °F 43.0 °F 100% 29.45 in 10.0 mi NNE 3.5 mph - N/A Rain Light Rain
5:01 PM 43.0 °F 39.5 °F 43.0 °F 100% 29.43 in 10.0 mi NNW 5.8 mph - N/A Rain Light Rain
5:30 PM 42.8 °F 40.1 °F 42.8 °F 100% 29.30 in 5.0 mi North 4.6 mph - N/A Rain Light Rain
6:01 PM 43.0 °F 39.5 °F 43.0 °F 100% 29.41 in 10.0 mi NNW 5.8 mph - N/A Rain Light Rain
6:32 PM 42.8 °F 40.1 °F 42.8 °F 100% 29.28 in 10.0 mi NNW 4.6 mph - N/A Rain Light Rain
7:01 PM 43.0 °F 40.3 °F 43.0 °F 100% 29.40 in 10.0 mi North 4.6 mph - N/A Rain Rain
7:13 PM 44.6 °F 42.2 °F 44.6 °F 100% 29.27 in 10.0 mi NNW 4.6 mph - N/A Rain Rain
7:27 PM 44.6 °F 43.1 °F 44.6 °F 100% 29.27 in 10.0 mi North 3.5 mph - N/A Rain Light Rain
8:01 PM 45.0 °F 43.5 °F 45.0 °F 100% 29.38 in 10.0 mi NNW 3.5 mph - N/A Rain Light Rain
8:36 PM 46.4 °F 44.3 °F 46.4 °F 100% 29.25 in 10.0 mi Variable 4.6 mph - N/A Rain Light Rain
9:01 PM 46.0 °F 44.8 °F 45.0 °F 96% 29.36 in 10.0 mi East 3.5 mph - N/A   Overcast
9:15 PM 46.4 °F 45.2 °F 46.4 °F 100% 29.25 in 10.0 mi East 3.5 mph - N/A   Overcast
9:38 PM 46.4 °F 45.2 °F 44.6 °F 93% 29.25 in 10.0 mi Variable 3.5 mph - N/A   Overcast
9:47 PM 46.4 °F 42.4 °F 46.4 °F 100% 29.25 in 10.0 mi ESE 8.1 mph - N/A   Overcast
9:54 PM 46.4 °F 42.9 °F 46.4 °F 100% 29.25 in 10.0 mi ESE 6.9 mph - N/A   Overcast
10:01 PM 46.0 °F 41.9 °F 46.0 °F 100% 29.37 in 10.0 mi East 8.1 mph - N/A   Overcast
10:09 PM 46.4 °F 42.9 °F 46.4 °F 100% 29.25 in 10.0 mi East 6.9 mph - N/A   Overcast
11:01 PM 46.4 °F 42.4 °F 46.4 °F 100% 29.24 in 10.0 mi East 8.1 mph - N/A Rain Light Rain
11:40 PM 48.2 °F - 46.4 °F 93% 29.24 in 10.0 mi ESE 9.2 mph - N/A   Overcast